[[{"header":{"parameterUnit":"m.s-1","parameterCategory":1,"la1":30.2991,"la2":30.254,"lo1":-89.0895,"lo2":-89.0444,"dy":0.0017,"dx":0.0017,"nx":28,"ny":28,"refTime":"2024-04-09T09:00:00:Z","depth":0,"parameterNumber":2,"parameterNumberName":"U-component_of_WINDS"},"data":[0,0,0,0,0,0,0,0,0,0,0,0,0,0,0,0,0,0,0,0,0,0,0,0,0,0,0,0,0,0,0,0,0,0,0,0,0,0,0,0,0,0,0,0,0,0,0,0,0,0,0,0,0,0,0,0,0,0,4.1344,4.1343,0,4.1199,4.1197,4.1195,4.1034,4.1032,4.103,4.1028,4.0876,4.0874,4.0872,0,0,0,0,0,0,0,0,0,0,0,0,0,4.148,4.1479,4.1344,4.1343,4.1341,4.1199,4.1197,4.1195,4.1035,4.1032,4.1029,4.1026,4.0877,4.0874,4.0872,0,0,0,0,0,0,0,0,0,0,0,0,0,4.1387,4.1478,4.1345,4.1244,4.1233,4.1199,4.1197,4.1194,4.1035,4.1032,4.1028,4.1025,4.0877,4.0875,4.0872,4.0925,0,0,4.0863,4.0862,0,0,0,0,0,0,0,0,4.1392,4.1382,4.126,4.1251,4.1239,4.1131,4.1189,4.1104,4.1036,4.1111,4.1027,4.1023,4.0964,4.0953,4.0934,4.0918,4.0911,4.0863,4.0861,4.086,4.0859,0,0,0,0,0,0,0,4.1399,4.1387,4.1287,4.1259,4.1246,4.1205,4.1188,4.1172,4.1058,4.1104,4.1092,4.1077,4.0957,4.0937,4.0929,4.0909,4.0863,4.0861,4.0859,4.0858,4.0927,4.093,0,0,0,0,0,0,4.1421,4.1394,4.1291,4.1282,4.1309,4.1205,4.1186,4.1169,4.1058,4.1038,4.108,4.107,4.0943,4.0932,4.0923,4.0976,4.086,4.0858,4.0856,4.0923,4.0927,4.0931,0,0,0,0,0,0,4.1425,4.1414,4.1297,4.1335,4.1317,4.1207,4.1189,4.1168,4.1148,4.104,4.1019,4.1081,4.094,4.0927,4.0925,4.0969,4.0856,4.0854,4.0919,4.0924,4.0929,4.1084,0,0,0,0,0,0,4.1429,4.1416,4.1436,4.1336,4.1315,4.1303,4.1192,4.1168,4.1144,4.1129,4.1035,4.1016,4.0936,4.093,4.0923,4.0963,4.0852,4.0915,4.0921,4.0928,4.1074,4.1094,4.111,0,0,0,0,0,4.1435,4.1485,4.1438,4.1426,4.1338,4.1306,4.1294,4.1202,4.1148,4.1166,4.1097,4.1019,4.0966,4.0932,4.0921,4.0961,4.0911,4.0919,4.0927,4.1066,4.109,4.111,0,0,0,0,0,0,4.1591,4.147,4.1416,4.1436,4.1383,4.1279,4.1299,4.123,4.1191,4.1178,4.1065,4.1045,4.1057,4.1008,4.0973,4.1006,4.0927,4.0933,4.1037,4.1058,4.1076,4.1086,4.0849,0,0,0,0,0,4.1629,4.1614,4.1508,4.1536,4.1512,4.1411,4.1393,4.1327,4.1267,4.1243,4.1174,4.1118,4.1087,4.107,4.1037,4.1067,4.1043,4.1089,4.1108,4.1123,4.1129,4.1139,4.1158,4.0957,4.0957,4.0957,0,0,4.1705,4.1636,4.1634,4.1565,4.1516,4.1502,4.1393,4.1383,4.1371,4.1241,4.1235,4.1183,4.1112,4.1126,4.1129,4.1087,4.1179,4.1133,4.1146,4.1143,4.1149,4.1168,4.1185,4.0962,4.0961,4.096,0,0,4.1835,4.1784,4.18,4.1753,4.168,4.1612,4.1617,4.1523,4.1483,4.1476,4.1378,4.1362,4.1313,4.1266,4.1236,4.1349,4.1275,4.1342,4.1435,4.1446,4.1462,4.1476,4.1514,4.1529,4.1348,4.1349,4.1349,0,4.1939,4.1915,4.1817,4.1813,4.1785,4.1668,4.1683,4.1642,4.1562,4.1545,4.1499,4.1434,4.1379,4.1379,4.1407,4.1387,4.1387,4.1351,4.1468,4.1481,4.1492,4.1527,4.1542,4.1357,4.1356,4.1355,4.1355,0,4.2044,4.2029,4.2051,4.1977,4.1952,4.1958,4.1859,4.1845,4.1781,4.1718,4.1711,4.164,4.159,4.1585,4.1523,4.1576,4.1552,4.1489,4.1408,4.1521,4.1552,4.1565,4.1369,4.1366,4.1364,4.1362,0,0,4.2269,4.2142,4.2151,4.2116,4.2027,4.2012,4.2012,4.1963,4.1952,4.1901,4.1897,4.1858,4.1799,4.1765,4.1696,4.1706,4.1798,4.1641,4.1637,4.1671,4.185,4.1897,4.1915,4.1749,4.1751,4.1753,4.1855,0,4.2383,4.2377,4.2288,4.2306,4.2289,4.2178,4.2177,4.2122,4.2063,4.204,4.1973,4.1947,4.1872,4.185,4.1856,4.1786,4.1832,4.1777,4.1742,4.1742,4.1761,4.1931,4.1981,4.2082,4.1867,4.1869,4.1871,0,4.2515,4.2472,4.2489,4.2398,4.2388,4.239,4.2337,4.2317,4.2251,4.2207,4.2169,4.2091,4.2082,4.2007,4.1993,4.1958,4.1937,4.1901,4.1902,4.1894,4.1812,4.1926,4.2112,4.2126,4.1889,4.1888,4.1887,0,4.2676,4.2622,4.2624,4.2598,4.2493,4.2496,4.2452,4.2383,4.2359,4.2313,4.2296,4.225,4.2224,4.2189,4.2099,4.2053,4.2094,4.2012,4.2056,4.2058,4.2069,4.2069,4.2252,4.2059,4.2059,4.2059,4.2059,0,4.2811,4.2825,4.2695,4.2697,4.2708,4.2606,4.262,4.2565,4.2505,4.2492,4.2393,4.2383,4.2267,4.2243,4.2173,4.2171,4.216,4.2123,4.2104,4.2131,4.2136,4.2115,4.2105,4.2063,4.2062,4.2061,4.206,0,4.2992,4.2906,4.2901,4.2802,4.2777,4.279,4.2704,4.2701,4.2636,4.2621,4.2612,4.2509,4.2476,4.2384,4.2327,4.228,4.2297,4.2262,4.232,4.2307,4.2355,4.2352,4.2531,4.2548,4.2347,4.2349,4.2351,0,4.3084,4.3092,4.2994,4.2979,4.294,4.2917,4.2892,4.2791,4.2769,4.2695,4.27,4.2659,4.2621,4.2573,4.2492,4.2448,4.241,4.2476,4.2403,4.2429,4.2409,4.2409,4.2408,4.2492,4.2494,4.2497,4.2498,0,4.3255,4.3211,4.318,4.3133,4.3107,4.3065,4.3017,4.3011,4.2897,4.2877,4.2843,4.2814,4.2755,4.2715,4.2658,4.2611,4.2535,4.2522,4.253,4.2557,4.2589,4.257,4.2361,4.2518,4.2516,4.2515,4.2514,4.2513,4.3392,4.3393,4.3325,4.3292,4.3246,4.3204,4.3195,4.3129,4.3099,4.3045,4.2987,4.2959,4.289,4.2806,4.2764,4.2739,4.2699,4.2711,4.2713,4.2717,4.2729,4.2595,4.2728,4.2727,4.2727,4.2726,4.2726,0,4.3556,4.3506,4.3478,4.3415,4.3389,4.3322,4.3266,4.3248,4.3225,4.3168,4.3133,4.3092,4.3053,4.297,4.2922,4.2918,4.2882,4.2908,4.2906,4.2896,4.2768,4.2765,4.2938,4.2938,4.2938,4.2938,4.2938,4.2938,4.3638,4.3637,4.3585,4.3559,4.3509,4.3481,4.3454,4.3414,4.3368,4.3328,4.3295,4.3241,4.3173,4.312,4.308,4.3056,4.3042,4.308,4.3045,4.2926,4.2906,4.2886,4.2883,4.3078,4.3078,4.3175,4.3176,4.3176]},{"header":{"parameterUnit":"m.s-1","parameterCategory":1,"la1":30.2991,"la2":30.254,"lo1":-89.0895,"lo2":-89.0444,"dy":0.0017,"dx":0.0017,"nx":28,"ny":28,"refTime":"2024-04-09T09:00:00:Z","depth":0,"parameterNumber":3,"parameterNumberName":"V-component_of_WINDS"},"data":[0,0,0,0,0,0,0,0,0,0,0,0,0,0,0,0,0,0,0,0,0,0,0,0,0,0,0,0,0,0,0,0,0,0,0,0,0,0,0,0,0,0,0,0,0,0,0,0,0,0,0,0,0,0,0,0,0,0,6.0481,6.0485,0,6.089,6.0895,6.09,6.1025,6.1023,6.1021,6.1019,6.1447,6.146,6.1473,0,0,0,0,0,0,0,0,0,0,0,0,0,5.9815,5.9827,6.048,6.0486,6.0491,6.0889,6.0895,6.0901,6.1025,6.1023,6.102,6.1018,6.1442,6.1458,6.1474,0,0,0,0,0,0,0,0,0,0,0,0,0,6.0153,5.9831,6.048,6.0601,6.0616,6.0888,6.0895,6.0902,6.1026,6.1023,6.102,6.1017,6.1437,6.1457,6.1476,6.1661,0,0,6.1537,6.1546,0,0,0,0,0,0,0,0,6.0133,6.0177,6.0578,6.0593,6.061,6.0903,6.0818,6.1157,6.1026,6.087,6.1019,6.1015,6.1269,6.1302,6.1386,6.1681,6.1699,6.1539,6.1551,6.156,6.1565,0,0,0,0,0,0,0,6.011,6.016,6.0643,6.0584,6.0603,6.0638,6.0682,6.0883,6.1082,6.0884,6.0894,6.094,6.1277,6.1367,6.1397,6.1705,6.1538,6.1556,6.1568,6.1576,6.2175,6.2178,0,0,0,0,0,0,6.0065,6.014,6.063,6.0655,6.0359,6.0652,6.0702,6.0812,6.108,6.1118,6.0942,6.0944,6.1334,6.1374,6.1413,6.1648,6.1559,6.1578,6.159,6.2171,6.2175,6.218,0,0,0,0,0,0,6.005,6.0107,6.0613,6.04,6.0467,6.0667,6.079,6.0822,6.0912,6.1124,6.1161,6.0996,6.1333,6.1385,6.1598,6.1665,6.1587,6.1605,6.2166,6.2172,6.2178,6.2118,0,0,0,0,0,0,6.003,6.0101,6.0171,6.0401,6.0478,6.0789,6.0794,6.0832,6.0945,6.0951,6.1185,6.1221,6.1335,6.1568,6.1618,6.1691,6.1621,6.2161,6.2169,6.2176,6.2115,6.2122,6.2127,0,0,0,0,0,6.0006,6.0139,6.0174,6.0232,6.0569,6.0792,6.0837,6.0963,6.0949,6.1023,6.116,6.1214,6.1649,6.1588,6.1646,6.1726,6.2157,6.2167,6.2175,6.2113,6.212,6.2127,0,0,0,0,0,0,5.9915,6.0172,6.0213,6.0424,6.0585,6.0813,6.0909,6.0967,6.1137,6.1137,6.1288,6.134,6.1543,6.1656,6.1584,6.192,6.1906,6.1926,6.1838,6.1847,6.1853,6.1822,6.1637,0,0,0,0,0,5.9919,6.0076,6.0293,6.0459,6.0537,6.0709,6.0811,6.0894,6.1068,6.1137,6.129,6.1459,6.1635,6.1747,6.192,6.2132,6.2186,6.2216,6.2221,6.2225,6.2242,6.2365,6.2381,6.2209,6.2209,6.2209,0,0,5.993,6.009,6.018,6.0444,6.0579,6.0741,6.0766,6.0936,6.1058,6.1165,6.1375,6.1492,6.1692,6.1905,6.2007,6.2006,6.2301,6.2236,6.2237,6.2253,6.2375,6.2391,6.2406,6.2215,6.2214,6.2213,0,0,6.0033,6.0168,6.0322,6.0455,6.0658,6.0772,6.0808,6.1028,6.1109,6.1322,6.1406,6.1555,6.1853,6.1992,6.2102,6.2258,6.2315,6.231,6.2341,6.2459,6.2472,6.2485,6.2543,6.2561,6.2326,6.2326,6.2326,0,6.0022,6.0266,6.0394,6.056,6.0675,6.0776,6.0934,6.1059,6.1308,6.1387,6.1381,6.1758,6.1899,6.2148,6.2185,6.227,6.2319,6.2285,6.2459,6.2474,6.2488,6.2544,6.2565,6.2324,6.2324,6.2324,6.2324,0,6.0243,6.0411,6.0512,6.0747,6.0874,6.1035,6.119,6.1303,6.1375,6.149,6.1707,6.188,6.209,6.2155,6.2228,6.2415,6.2408,6.2429,6.2418,6.25,6.2556,6.2578,6.2321,6.2322,6.2323,6.2323,0,0,6.0301,6.0604,6.0639,6.0748,6.0979,6.1113,6.128,6.1483,6.1578,6.1747,6.1893,6.2143,6.2164,6.2288,6.2378,6.2481,6.2596,6.249,6.2497,6.2505,6.2815,6.2799,6.2822,6.2634,6.2639,6.2642,6.2799,0,6.0434,6.0733,6.0854,6.1098,6.1256,6.1354,6.1501,6.166,6.1772,6.1925,6.2051,6.2226,6.2239,6.2315,6.2421,6.2559,6.266,6.2549,6.2774,6.2781,6.2722,6.2851,6.2834,6.2974,6.2821,6.2825,6.2828,0,6.063,6.0798,6.1056,6.1269,6.134,6.1468,6.1665,6.1809,6.1993,6.2068,6.2206,6.229,6.2472,6.2447,6.2702,6.2624,6.2724,6.2805,6.2814,6.2841,6.281,6.2883,6.3021,6.3042,6.2863,6.2861,6.2858,0,6.0648,6.0939,6.1131,6.1221,6.1474,6.1562,6.1672,6.1852,6.1967,6.214,6.2216,6.2408,6.2515,6.2663,6.2798,6.2767,6.3041,6.3028,6.3111,6.3108,6.3166,6.316,6.3323,6.3226,6.3226,6.3226,6.3225,0,6.0785,6.094,6.1143,6.1261,6.1439,6.1577,6.175,6.1867,6.2027,6.2172,6.227,6.2405,6.2574,6.2732,6.2839,6.3035,6.3082,6.315,6.3177,6.3142,6.3134,6.3211,6.3205,6.3231,6.323,6.3229,6.3228,0,6.0835,6.0977,6.1194,6.1414,6.1473,6.1595,6.1785,6.1906,6.2022,6.2205,6.2257,6.244,6.2631,6.278,6.3029,6.3101,6.3309,6.3338,6.3246,6.326,6.3336,6.3327,6.3555,6.3593,6.3468,6.3469,6.347,0,6.0914,6.1035,6.1268,6.1371,6.1479,6.1644,6.1761,6.1903,6.2021,6.224,6.2335,6.2532,6.2697,6.2998,6.3156,6.3348,6.3383,6.345,6.3413,6.3375,6.3387,6.3378,6.3393,6.3455,6.3455,6.3456,6.3456,0,6.1039,6.1103,6.1266,6.1455,6.1591,6.1747,6.1905,6.1985,6.2156,6.2285,6.248,6.2607,6.2861,6.3057,6.3265,6.3382,6.345,6.3466,6.3496,6.3463,6.3405,6.3439,6.326,6.3461,6.346,6.346,6.346,6.346,6.1108,6.1221,6.1402,6.1581,6.1715,6.186,6.1985,6.2116,6.228,6.2495,6.257,6.2771,6.2955,6.324,6.3359,6.3521,6.3524,6.3567,6.3578,6.3587,6.3584,6.3377,6.3559,6.3559,6.3559,6.3559,6.3559,0,6.124,6.1361,6.1524,6.1741,6.1883,6.193,6.2108,6.2225,6.2399,6.2563,6.2723,6.2948,6.3139,6.3311,6.351,6.3607,6.3643,6.3655,6.365,6.3677,6.3569,6.3524,6.3623,6.3622,6.3622,6.3622,6.3622,6.3622,6.1325,6.1518,6.1604,6.1866,6.1988,6.2183,6.2281,6.2417,6.2549,6.2794,6.2952,6.3062,6.3231,6.3443,6.3621,6.3667,6.3737,6.3742,6.3796,6.3692,6.3684,6.3676,6.3635,6.3755,6.3755,6.3891,6.3892,6.3893]}]]